[ hide orbit diagram ]
For accurate long-term ephemerides, please instead use our Horizons system.This orbit viewer was implemented using two-body methods, and hence should not be used for determining accurate long-term trajectories (over several years or decades) or planetary encounter circumstances.
Orbital Elements at Epoch 2459000.5 (2020-May-31.0) TDB
Reference: JPL 18 (heliocentric ecliptic J2000)
Element | Value | Uncertainty (1-sigma) | Units |
e | .1219131359260557 | 3.7234e-08 | |
a | 2.401484936075179 | 1.0497e-08 | au |
q | 2.10871237663907 | 8.7997e-08 | au |
i | 2.636122794246146 | 4.0752e-06 | deg |
node | 123.433540146944 | 8.9925e-05 | deg |
peri | 7.541300648728104 | 9.2021e-05 | deg |
M | 174.385507159515 | 2.0557e-05 | deg |
tp | 2458342.044977068290 (2018-Aug-11.54497707) | 7.551e-05 | TDB |
period | 1359.30910840306 3.72 | 8.9124e-06 2.44e-08 | d yr |
n | .2648404235464399 | 1.7365e-09 | deg/d |
Q | 2.694257495511287 | 1.1777e-08 | au |
|
| | Orbit Determination Parameters
Additional Information
|
[ show covariance matrix ]
Physical Parameter Table
Parameter |
Symbol |
Value |
Units |
Sigma |
Reference |
Notes |
absolute magnitude |
H |
16.2 |
|
n/a |
MPO436346 |
|
|
80858 (2000 DL24) Discovered 2000-Feb-29 by LINEAR at Socorro |
Reference: 20040504/Numbers.arc | Last Updated: 2004-07-16 |
|
[ show close-approach data ]
|